Regional Weather Roundup
Issued by NWS Grand Forks, ND

Home | Current Version | Previous Version | Text Only | Print | Product List | Glossary Off
Versions: 1 2 3 4 5 6 7 8 9 10 11 12 13 14 15 16 17 18 19 20 21 22 23 24 25 26 27 28 29 30 31 32 33 34 35 36 37 38 39 40 41 42 43 44 45 46 47 48 49 50

000
ASUS43 KFGF 120431
RWRFGF
PRAIRIE TO PINES  WEATHER ROUNDUP
NATIONAL WEATHER SERVICE EASTERN NORTH DAKOTA/GRAND FORKS ND
1100 PM CDT SUN APR 11 2021

 **SATELLITE DATA USED TO AUGMENT SKY COVER AT AUTOMATED STATIONS**
 *****  WEATHER ACROSS EASTERN NORTH DAKOTA  *****

CITY           SKY/WX    TMP DP  RH WIND       PRES   REMARKS
GRAND FORKS    MOCLDY    42  36  79 NE7       29.73R
GRAND FRKS AFB CLOUDY    41  40  97 N7        29.73R
GRAND FRKS NWS   N/A     41  38  89 NE10      29.69R
DEVILS LAKE    LGT RAIN  44  37  76 NE10      29.75R
FARGO          CLOUDY    46  38  73 NE7       29.69R
WAHPETON ARPT    N/A    N/A N/A N/A MISG        N/A
$$

 ***** WEATHER ACROSS CENTRAL AND WESTERN NORTH DAKOTA  *****

CITY           SKY/WX    TMP DP  RH WIND       PRES   REMARKS
BISMARCK       CLOUDY    39  29  67 NW14G26   29.86R
MINOT          LGT SNOW  34  32  92 W16       29.79S FOG     WCI  24
JAMESTOWN      LGT RAIN  37  35  92 NW23G32   29.74R
MINOT AFB      LGT SNOW  32  32 100 NW14      29.77S FOG     WCI  22
GARRISON         N/A     35  29  78 NW22G38   29.83S WCI  23
WILLISTON      NOT AVBL
DICKINSON      CLOUDY    34  25  69 NW26G38   29.90R WCI  21
HETTINGER      FAIR     N/A N/A N/A NW23G35   29.94S
$$

 *****  OTHER AIRPORT OBSERVATIONS IN OUR AREA  *****

CITY           SKY/WX    TMP DP  RH WIND       PRES   REMARKS
WALHALLA       CLOUDY    39  39 100 N15       29.79S
GRAFTON AIRPOR NOT AVBL
VALLEY CITY AR LGT RAIN  41  41 100 NW9       29.74S
CANDO          NOT AVBL
CAVALIER APRT  CLOUDY    41  37  87 N10       29.77S
GWINNER        CLOUDY    39  39 100 NW21      29.73S FOG
SHEYENNE NWR     N/A     43  43 100 NW12      29.95
ROLLA          MIX PCPN  37  34  87 NE17      29.81R
 ***** THE ABOVE OBSERVATIONS ARE NON NWS ARE NOT QUALITY
       CONTROLLED AND MAY MIS-REPORT RAIN FOR SNOW...
$$

  *****  WEATHER ACROSS NORTHERN MINNESOTA  *****

CITY           SKY/WX    TMP DP  RH WIND       PRES   REMARKS
FLAG ISLAND    DRIZZLE   37  36  93 NE13      29.75F
WARROAD        DRIZZLE   37  34  87 N9        29.75F
ROSEAU         CLOUDY    39 N/A N/A NE8       29.75S
HALLOCK        CLOUDY    43  39  87 NE10      29.76S
THF RVR FALLS  CLOUDY    39  37  92 NE9       29.73S
BAUDETTE       LGT RAIN  39  38  96 N9        29.72F
WASKISH        CLOUDY    39  37  93 N5        29.70S
CROOKSTON      CLOUDY    39  37  93 NE8       29.72F
STEPHEN NDAWN    N/A     41  39  93 MISG        N/A
GREENBUSH NDAW   N/A     39  37  93 VRB6        N/A
$$
  *****  WEATHER ACROSS CENTRAL AND WEST MINNESOTA  *****

CITY           SKY/WX    TMP DP  RH WIND       PRES   REMARKS
FOSSTON        CLOUDY    39  37  93 NE7       29.70S
BEMIDJI        DRIZZLE   41  40  96 NE5       29.68S
PARK RAPIDS    CLOUDY    44  39  82 N7        29.66S
ELBOW LAKE     CLOUDY    45  38  77 N5        29.67S
WADENA           N/A     43  39  87 CALM      29.66S
DETROIT LAKES  CLOUDY    43  37  81 N5        29.67S
MOORHEAD       MOCLDY    43  36  75 NW3       29.70S
FERGUS FALLS   MOCLDY    43  37  81 N5        29.64S
MORRIS MN      CLOUDY    46  37  71 CALM      29.69R
STAPLES        CLOUDY    46  41  81 CALM      29.65F
$$
  *****  WEATHER ELSEWHERE ACROSS MINNESOTA  *****

CITY           SKY/WX    TMP DP  RH WIND       PRES   REMARKS
DULUTH         LGT RAIN  43  41  93 N7        29.61F
INTRNTL FALLS  LGT RAIN  40  38  93 NE7       29.69F
ELY            LGT RAIN  39  39 100 N3        29.63F
CLOQUET        LGT RAIN  41  41 100 N9        29.60S
WHEATON        NOT AVBL
BRAINERD       LGT RAIN  45  43  93 NW6       29.65F FOG
HIBBING        LGT RAIN  40  39  97 N6        29.63S
ALEXANDRIA     FAIR      41  36  82 W3        29.67S
SAINT CLOUD    CLOUDY    48  42  80 N3        29.64S
MINNEAPOLIS    CLOUDY    50  44  80 NW9       29.63S
$$

  *****  WEATHER ACROSS SOUTH DAKOTA  *****

CITY           SKY/WX    TMP DP  RH WIND       PRES   REMARKS
SIOUX FALLS    FAIR      43  35  73 W9        29.78R
BROOKINGS      LGT RAIN  42  38  85 NW23      29.74S
WATERTOWN      LGT RAIN  42  40  92 W16G25    29.73R
HURON          MOCLDY    40  37  89 NW17      29.83R
SISSETON         N/A     46  40  79 NW15      29.70S
ABERDEEN       CLOUDY    41  35  79 NW17G32   29.80R
MITCHELL       CLOUDY    44  36  73 NW25G36   29.86R
PIERRE         FAIR      38  30  73 NW20G26   29.92R
MOBRIDGE       CLOUDY    41  30  65 NW20G29   29.85R
RAPID CITY     FAIR      33  20  58 N24G35    30.01S WCI  20
$$

  *****  SOME WEATHER IN NEARBY STATES *****

CITY           SKY/WX    TMP DP  RH WIND       PRES   REMARKS
GLASGOW MT     FAIR      33  23  66 NW14      30.10R WCI  23
GREAT FALLS MT FAIR      25  21  85 S5        30.21R WCI  19
CHEYENNE WY    CLOUDY    30  13  49 NE6       30.02R WCI  24
SCOTTSBLUFF NE CLOUDY    36  16  44 NE6       30.03R
OMAHA NE       FAIR      50  33  52 N17G26    29.81R
DES MOINES IA  FAIR      52  36  54 N7        29.70R
DAVENPORT IA   FAIR      50  46  86 W8        29.65R
CHICAGO IL     MOCLDY    51  44  77 SW5       29.55R
EAU CLAIRE WI  CLOUDY    48  44  86 NW6       29.57S
LA CROSSE WI   CLOUDY    51  46  83 NW9       29.58S
$$

  *****  SOME NATIONAL WEATHER *****

CITY           SKY/WX    TMP DP  RH WIND       PRES   REMARKS
LA GUARDIA NY  CLOUDY    47  44  90 NE15      29.67S FOG
RALEIGH NC     FAIR      60  49  66 SW6       29.60R
ATLANTA GA     FAIR      61  40  45 W9        29.73S
NEW ORLEANS LA FAIR      64  58  80 CALM      29.79R
OKLAHOMA CITY  FAIR      62  42  47 SE9       29.72R
ALBUQUERQUE NM FAIR      67   0   7 NW7       29.82R
SALT LAKE CITY FAIR      44  15  31 N5        29.97R
LOS ANGELES CA FAIR      58  53  84 W3        29.78R
BOISE ID       FAIR      42  12  29 NW7       30.08R
SEATTLE WA     FAIR      44  25  47 N8        30.31R
$$

*** WEATHER ACROSS MANITOBA...SASKATCHEWAN AND ONTARIO ***
                ***ONTARIO***

CITY           SKY/WX    TMP DP  RH WIND       PRES   REMARKS
GERALDTON      LGT RAIN  34  34 100 NE10G23   29.81R VSB 1
THUNDER BAY    LGT RAIN  43  41  93 E9        29.64F
SIOUX LOOKOUT  LGT RAIN  34  32  93 VRB5      29.80R FOG
TORONTO        CLOUDY    55  54  94 E14G24    29.56R
BIG TROUT LK   CLOUDY    23  19  86 NE13G21   30.14S WCI  11
PICKLE LAKE    LGT SNOW  28  27  93 NE13G28   29.92F WCI  18
DRYDEN         LGT RAIN  34  34 100 NE16G24   29.76S WCI  23
KENORA         LGT RAIN  36  34  93 NE12G18   29.77F
$$
                *** MANITOBA***

CITY           SKY/WX    TMP DP  RH WIND       PRES   REMARKS
BRANDON        CLOUDY    34  28  80 NE23G32   29.88R WCI  22
DAUPHIN        LGT RAIN  34  25  69 NE20G29   30.00R WCI  22
ISLAND LAKE    CLOUDY    23  14  68 NE12G17   30.18R WCI  12
PILOT MOUND      N/A     37  34  87 NE17G23     N/A
THE PAS        CLOUDY    27  21  80 NE5G17    30.24R WCI  21
THOMPSON       MOCLDY    19   9  63 NE14G21   30.36R WCI   6
WINNIPEG       LGT RAIN  37  37 100 NE14G21   29.83S
LYNN LAKE      CLOUDY    18   9  68 NE5       30.39R WCI  11
CHURCHILL      CLEAR      5   1  85 N16       30.52R WCI -14
GILLAM         CLEAR     10   3  72 NE13      30.41R WCI  -5
$$
                ***SASKATCHEWAN***

CITY           SKY/WX    TMP DP  RH WIND       PRES   REMARKS
ESTEVAN        LGT SNOW  32  32 100 N15G22    29.87R WCI  22
KINDERSLEY     MOCLDY    34  23  64 N13       30.21R WCI  25
LLOYDMINSTER   MOCLDY    32  19  59 N6        30.27R
PRINCE ALBERT  LGT SNOW  30  27  86 NE13      30.28R FOG     WCI  20
REGINA         LGT SNOW  28  27  93 N20G28    30.03R VSB 1   WCI  15
YORKTON        FLURRIES  30  27  86 N20G28    30.01R WCI  18
N. BATTLEFORD  CLOUDY    30  21  69 N8        30.28R WCI  23
LA RONGE       MOCLDY    28  14  54 N8        30.33R WCI  20
SASKATOON      LGT SNOW  30  27  86 N16       30.21R WCI  19
SWIFT CURRENT  CLOUDY    28  27  93 N17G25    30.13R WCI  16
$$
NOTE: THESE ARE AUTOMATED STATIONS WITH LIMITED QUALITY CONTROL
      "FAIR" INDICATES FEW OR NO CLOUDS BELOW 12,000 FEET WITH NO
      SIGNIFICANT WEATHER AND/OR OBSTRUCTIONS TO VISIBILITY.
      SKY/WX - SKY CONDITION AND SIGNIFICANT WEATHER.
      TMP - AIR TEMPERATURE.    DP   - DEWPOINT TEMPERATURE.
      RH  - RELATIVE HUMIDITY.  PRES - PRESSURE.
      HX  - HEAT INDEX.         WCI  - WIND CHILL INDEX.
$



USA.gov is the U.S. government's official web portal to all federal, state and local government web resources and services.